This demonstration page uses our WeatherBlox Daily Observations layout. Learn more.

Left ArrowRight Arrow

Hourly Observations for May 22, 2021

Temp ( °F °C ) Dew Point ( °F °C ) Humidity (%) Winds ( mph kmh ) Pressure ( in mb ) Visibility ( mi km ) Precip ( " mm )
12:53 am 00:53 Clear 60 15.6 33 0.6 36 36 N 6 9 29.99 1016 10 16 0.00 0.00
1:53 am 01:53 Clear 59 15 34 1.1 39 39 NNE 6 9 30.00 1016 10 16 0.00 0.00
2:53 am 02:53 Clear 56 13.3 34 1.1 44 44 VRB 3 6 29.99 1016 10 16 0.00 0.00
3:53 am 03:53 Partly Cloudy 54 12.2 35 1.7 49 49 NE 5 7 30.00 1016 10 16 0.00 0.00
4:53 am 04:53 Mostly Cloudy 52 11.1 35 1.7 53 53 NW 6 9 30.00 1016 10 16 0.00 0.00
5:53 am 05:53 Cloudy 53 11.7 36 2.2 52 52 Calm 30.01 1016 10 16 0.00 0.00
6:53 am 06:53 Partly Cloudy 54 12.2 36 2.2 51 51 NNE 5 7 30.02 1017 10 16 0.00 0.00
7:53 am 07:53 Partly Cloudy 57 13.9 37 2.8 47 47 Calm 30.02 1017 10 16 0.00 0.00
8:53 am 08:53 Sunny 63 17.2 37 2.8 38 38 N 3 6 30.02 1017 10 16 0.00 0.00
9:53 am 09:53 Mostly Sunny 69 20.6 37 2.8 31 31 NNE 10 17 30.01 1016 10 16 0.00 0.00
10:53 am 10:53 Sunny 71 21.7 37 2.8 29 29 N 12 19 30.00 1016 10 16 0.00 0.00
11:53 am 11:53 Sunny 73 22.8 36 2.2 26 26 NE 9 15 29.98 1015 10 16 0.00 0.00
12:53 pm 12:53 Sunny 75 23.9 36 2.2 24 24 VRB 6 9 29.97 1015 10 16 0.00 0.00
1:53 pm 13:53 Cloudy 74 23.3 36 2.2 25 25 N 9 15 29.96 1015 10 16 0.00 0.00
2:53 pm 14:53 Mostly Sunny 76 24.4 35 1.7 23 23 NNW 7 11 29.95 1014 10 16 0.00 0.00
3:53 pm 15:53 Cloudy 76 24.4 35 1.7 23 23 NNE 5 7 29.93 1014 10 16 0.00 0.00
4:53 pm 16:53 Mostly Cloudy 76 24.4 35 1.7 23 23 S 6 9 29.92 1013 10 16 0.00 0.00
5:53 pm 17:53 Cloudy 76 24.4 35 1.7 23 23 Calm 29.92 1013 10 16 0.00 0.00
6:53 pm 18:53 Mostly Cloudy 75 23.9 36 2.2 24 24 E 3 6 29.91 1013 10 16 0.00 0.00
7:53 pm 19:53 Sunny 73 22.8 37 2.8 27 27 NE 7 11 29.91 1013 10 16 0.00 0.00
8:53 pm 20:53 Partly Cloudy 69 20.6 39 3.9 33 33 Calm 29.93 1014 10 16 0.00 0.00
9:53 pm 21:53 Mostly Cloudy 69 20.6 40 4.4 35 35 WSW 5 7 29.94 1014 10 16 0.00 0.00
10:53 pm 22:53 Mostly Cloudy 68 20 41 5 38 38 SE 5 7 29.94 1014 10 16 0.00 0.00
11:53 pm 23:53 Cloudy 65 18.3 42 5.6 43 43 NW 3 6 29.94 1014 10 16 0.00 0.00

Powered by AerisWeather